{"data":{"norad_id":61712,"intl_designator":"2024-196F","name":"STARLINK-32343","alt_names":[],"object_type":"PAYLOAD","status":"ACTIVE","operator":null,"country":"US","launch_date":"2024-10-30","launch_site_code":"AFETR","launch_vehicle":null,"mission":null,"orbit_class":"UNKNOWN","rcs_meters":null,"size_class":null,"mass_kg":null,"dimensions":null,"purposes":["comms"],"wikipedia_slug":null,"has_3d_model":false,"image_url":null,"decayed_at":null,"tle_current":{"epoch":"2026-09-21T01:22:58.456128Z","epoch_age_seconds":140716,"freshness":"FRESH","line1":"1 61712U 24196F   26264.05762102  .00000452  00000+0  24517-4 0  9995","line2":"2 61712  53.1595 271.3719 0001364  89.4997 270.6162 15.34390654107100","mean_motion":15.34390654,"eccentricity":0.0001364,"inclination_deg":53.1595,"raan_deg":271.3719,"arg_perigee_deg":89.4997,"mean_anomaly_deg":270.6162,"bstar":2.4517e-5,"rev_number":10710,"period_min":93.848329709652,"perigee_km":461.79792423194,"apogee_km":463.66411302742,"semimajor_km":6840.8680186297,"source":"CELESTRAK","updated_at":"2026-09-22T09:00:49.410750Z"}}}